World > North America > United States > Minnesota

Hourly Dora Lake, MN Regional Weather

Feedback E-mail the Weather

Quick WX

Dora Lake, MN Weather Maps

°F °C°F °C
Dora Lake Weather Map
UTC Time: 7/2/2022, 05:05
Your Time:

Dora Lake, MN Regional Weather

Expires:202207020500;;530480
ASUS43 KMPX 020410
RWRMN 
WEATHER ROUNDUP FOR MINNESOTA
NATIONAL WEATHER SERVICE TWIN CITIES/CHANHASSEN MN
1100 PM CDT FRI JUL 01 2022


NOTE: "FAIR" INDICATES FEW OR NO CLOUDS BELOW 12,000 FEET WITH NO
SIGNIFICANT WEATHER AND/OR OBSTRUCTIONS TO VISIBILITY. N/A MEANS
CURRENT SKY AND/OR WEATHER CONDITIONS ARE NOT AVAILABLE.


MNZ006-009>011-018-025>026-020500-
   North Central Minnesota   
  
CITY           SKY/WX    TMP DP  RH WIND       PRES   REMARKS
BAUDETTE       CLEAR     54  46  74 W3        29.98R                  
INTL FALLS     CLEAR     54  43  66 NW5       29.95R                  
WASKISH        CLEAR     64  43  45 NW6       29.98R                  
BIG FORK       CLEAR     55  48  76 CALM      30.01S                  
LONGVILLE      MOCLDY    57  55  94 CALM      29.97R                  
GRAND RAPIDS   CLOUDY    58  52  80 CALM      29.99R                  
CRANE LAKE     CLEAR     46  43  87 CALM      29.96R                  
ORR              N/A     59  46  63 NW3       29.93R                  
COOK           CLEAR     52  46  82 CALM      29.95R                  
WALKER         CLEAR     54  53  95 CALM      29.98R                  
$$

SKY/WX - Weather  TMP - Temperature  DP - Dew Point  RH - Humidity
WIND - Wind Direction/Speed PRES - Barometric Pressure VSB - Visibility
WCI - Wind Chill Index E13G22 Wind - East Wind 13 mph/Gusts of 22 mph

Trending Headlines

Dora Lake Radar Loop



Dora Lake Quick Facts


National Two Day Weather Forecast


E-mail the Dora Lake Weather Forecast

Voice your opinion or tell us about page issues...